Powrót do katalogu

FORMOSAT7-6/COSMIC2-6

AktywnyNaukaVLEO
NORAD 44353·PAYLOAD·🇹🇼 Taiwan

Wystrzelony Jun 25, 2019 z Cape Canaveral Space Force Station

Loading…

Następne Przeloty (najbliższe 24 godziny)

TLE

ŚwieżeSource: Space-Track

Epoka: Sep 14, 2026, 15:06 UTC

1 44353U 19036Q   26257.62937383  .00002148  00000-0  15716-3 0  9999
2 44353  23.9975  86.4750 0001388  67.3360 292.7287 14.96824232395231

Śledź FORMOSAT7-6/COSMIC2-6 w czasie rzeczywistym z AllMySat

Download on the App Store